www.pogodaiklimat.ru

Погода и климат >> Архив погоды >> Россия >> Самарская область >> Самара


АРХИВ ПОГОДЫ в Самаре

Время (UTC), дата Ветер
(напр.,м/с)
 
Видим.   Явления Облачность Т
(С)
Тd
(С)
f
(%)
Тe
(С)
Тes
(С)
Комфортность P
(гПа)
Po
(гПа)
Тmin
(С)
Tmax
(С)
R
(мм)
R24
(мм)
S
(см)
09 18.06 10 км н/о +20.0 +12.6 62 +22 +28 комфорт 1003.8 987.7
12 18.06 СЗ 1 10 км гроза, ливневой дождь 8/8 600 м
[Cb calv]
+14.9 +11.6 81 +15 +18 1004.7 988.3
15 18.06 З 2 10 км {гроза, ливн. осадки} 6/0
[Ac trans Ci fib]
+18.0 +12.8 72 +19 +20 1004.4 988.2 +20.0 1
18 18.06 З 1 10 км 3/0
[Ac trans]
+15.5 +13.2 86 +16 +16 1005.2 988.8
21 18.06 З 1 10 км ясно +13.4 +12.8 96 +13 +13 1005.6 989.1
00 19.06 З 2 500 м туман н/о +13.0 +13.0 100 +12 +12 1005.5 989.0
03 19.06 З 2 2000 м дымка {дождь, туман} 8/8 300 м
[St]
+13.2 +13.2 100 +12 +13 1005.7 989.2 +12.6 0.3
06 19.06 З 2 10 км {дождь, туман} ясно +18.3 +14.3 77 +19 +31 опасность
простуды
1005.3 989.1
09 19.06 ЮЗ 2 10 км гроза, ливневой дождь 8/8 600 м
[Cb calv Ac trans]
+18.5 +15.0 80 +20 +23 1004.7 988.6
12 19.06 З 2 10 км {гроза, ливн. осадки} 8/6 600 м
[Cu hum Ci fib]
+22.4 +12.6 54 +25 +29 комфорт 1003.3 987.3
15 19.06 З 3 10 км 10/4 600 м
[Cu med, cong Ci fib]
+21.2 +12.2 56 +23 +24 комфорт 1002.9 986.9 +24.2 2
18 19.06 Ю 1 10 км в посл. час ливневой дождь {гроза} 10/5 600 м
[Cb cap Ci fib]
+17.3 +12.4 73 +18 +18 1003.5 987.2
21 19.06 З 2 10 км 10/4 600 м
[Sc Ci fib]
+16.7 +12.2 75 +17 +17 1002.9 986.6
00 20.06 З 1 10 км 10/8 600 м
[Sc Ac trans]
+15.3 +12.7 84 +16 +16 1002.2 985.9
03 20.06 З 2 10 км 10/3 600 м
[Sc Ac trans]
+15.4 +13.1 86 +15 +16 1001.9 985.6 +15.0 0.8
06 20.06 З 3 10 км 10/6 600 м
[Cu Sc Ac trans]
+16.3 +13.8 85 +16 +18 1001.7 985.5
09 20.06 З 2 10 км {ливн. осадки} 8/8 600 м
[Cu Sc]
+18.3 +14.5 79 +19 +23 1000.8 984.7
12 20.06 З 2 10 км {гроза, ливн. осадки} 3/0
[Ci fib]
+18.8 +12.7 68 +20 +30 1001.5 985.4
15 20.06 З 2 10 км 3/0
[Ac trans Ci fib]
+20.5 +7.5 43 +22 +24 комфорт 1002.3 986.2 +20.9 1
18 20.06 З 1 10 км ясно +16.9 +10.6 66 +18 +18 1003.6 987.3
21 20.06 З 1 10 км ясно +14.2 +12.0 87 +15 +15 1004.1 987.7
00 21.06 штиль 0 10 км ясно +12.2 +10.9 92 +12 +12 1004.3 987.8
03 21.06 СЗ 1 10 км ясно +16.3 +12.8 80 +17 +21 1004.0 987.7 +10.5
06 21.06 ЮЗ 1 10 км 3/0
[Ci fib]
+20.6 +12.5 60 +24 +37 комфорт 1003.5 987.4
09 21.06 ЮЗ 3 10 км 3/3 600 м
[Cu hum]
+23.9 +10.9 44 +25 +35 комфорт 1002.2 986.3
12 21.06 ЮЗ 2 10 км 8/4 600 м
[Cu med, cong Ci fib]
+25.4 +12.3 44 +27 +32 жарко 1000.5 984.7
15 21.06 ЮЗ 2 10 км 9/5 600 м
[Cu med, cong Ci fib]
+25.0 +14.0 50 +27 +28 жарко 999.0 983.2 +26.7
18 21.06 СЗ 2 10 км 10/4 600 м
[Sc Ac trans Ci]
+21.1 +14.2 65 +24 +24 комфорт 999.6 983.7
21 21.06 ЮЗ 1 10 км 6/0
[Ac trans Ci fib]
+17.7 +14.1 79 +19 +19 1000.2 984.0
00 22.06 З 1 10 км 10/3 600 м
[Sc Ac und]
+17.0 +14.6 86 +18 +18 1001.1 984.9
03 22.06 З 2 10 км 8/0
[Ac trans Ci fib]
+17.2 +15.3 89 +18 +20 1001.2 985.0 +16.3
06 22.06 ЮЗ 2 10 км 8/5 600 м
[Sc Ac trans]
+19.5 +11.6 60 +21 +25 комфорт 1001.9 985.8
09 22.06 З 4 10 км 3/0
[Ac trans]
+21.7 +8.2 42 +23 +32 комфорт 1001.9 985.9
12 22.06 З 4
{10}
10 км 3/3 600 м
[Cu hum]
+21.7 +4.3 32 +22 +27 комфорт 1002.1 986.0
15 22.06 С 2 10 км 8/6 600 м
[Cb calv Ac trans]
+19.5 +7.8 47 +21 +21 комфорт 1003.1 987.0 +22.2
18 22.06 СЗ 1 10 км 3/0
[Ci fib]
+15.9 +8.7 62 +17 +17 1005.4 989.1
21 22.06 З 1 10 км ясно +13.2 +9.8 80 +13 +13 1006.5 990.0
00 23.06 З 1 10 км ясно +9.0 +8.0 93 +8 +8 1007.4 990.6
03 23.06 З 2 10 км ясно +13.5 +8.7 73 +13 +16 1008.2 991.6 +8.9
06 23.06 ЮЗ 2 10 км ясно +16.8 +8.7 59 +17 +29 опасность
простуды
1008.7 992.3
09 23.06 З 3 10 км 5/3 600 м
[Cu hum Ci fib]
+19.4 +8.0 48 +20 +30 1008.5 992.3
12 23.06 З 1
{10}
10 км слабый ливневой дождь 9/8 600 м
[Cb calv Ac trans]
+14.7 +11.9 83 +15 +17 1008.5 992.0
15 23.06 З 3 10 км {ливн. осадки} 8/8 600 м
[Sc]
+19.1 +6.9 45 +20 +20 1007.2 990.9 +20.5 0.5
18 23.06 В 2 10 км {ливн. осадки} 4/4 600 м
[Sc]
+15.2 +9.8 70 +15 +15 1007.6 991.2
21 23.06 Ю 1 10 км 10/6 600 м
[Sc Ac trans]
+13.8 +9.9 77 +14 +14 1007.0 990.5
00 24.06 СЗ 2 10 км 10/8 600 м
[Sc Ac trans]
+13.6 +11.1 85 +13 +13 1006.9 990.4
03 24.06 З 1 10 км слабый ливневой дождь 10/10 600 м
[Cb cap]
+13.5 +11.6 88 +14 +14 1006.9 990.4 +12.7 0.3
06 24.06 З 1 10 км слабый ливневой дождь {снег} 10/8 600 м
[Cb calv Ac trans]
+14.2 +11.6 84 +15 +16 1006.7 990.2
09 24.06 В 2 10 км дождь {ливн. осадки} 10/10 300 м
[Frnb Ns]
+14.2 +12.1 87 +14 +14 1006.3 988.9
12 24.06 В 2 4000 м дождь {ливн. осадки} 10/10 300 м
[Frnb Ns]
+13.0 +13.0 100 +12 +12 1003.3 986.8
15 24.06 В 4 4000 м дождь 10/10 300 м
[Frnb Ns]
+13.0 +13.0 100 +11 +11 1000.6 984.1 +14.4 13
18 24.06 С 1 10 км слабый дождь 10/10 300 м
[Frnb Ns]
+12.8 +12.8 100 +13 +13 998.3 981.9
21 24.06 СЗ 4-10
{11}
10 км в посл. час дождь 9/9 600 м
[Sc]
+11.4 +11.4 100 +9 +9 998.9 982.4
00 25.06 З 2
{10}
10 км {дождь} 3/3 600 м
[Sc]
+11.7 +9.4 86 +11 +11 1001.3 984.8
03 25.06 З 2 10 км 8/8 600 м
[Cb calv]
+13.2 +10.9 86 +12 +13 1003.5 987.0 +11.3 11
06 25.06 З 3 10 км 3/3 600 м
[Sc]
+18.4 +10.1 58 +19 +26 1004.9 988.7

 

Местоположение метеостанции Самара (Самарская область, Россия): широта 53.25 долгота 50.22 высота над уровнем моря 139 м.

В архиве по умолчанию представлена погода в Самаре за последнюю неделю. Архивные данные за месяц целиком и за предыдущие месяцы, начиная с января 2011 года, Вы можете получить, выбрав интересующий диапазон дат из раскрывающегося списка и нажав кнопку "Ввод!".

Внимание! Время в таблицах - всемирное. Для получения местного времени необходимо прибавить поправку, которая в Самаре равна 4 ч.

Смотрите также архив погоды в соседних городах и на ближайших метеорологических станциях:

Погода в Самаре-Центр (Самарская область, Россия) (8 км)
Погода в Курумоче (Самарская область, Россия) (28 км)
Погода в Аглосе (Самарская область, Россия) (32 км)
Погода в Безенчуке (Самарская область, Россия) (61 км)
Погода в Тольятти (Самарская область, Россия) (69 км)
Погода в Кинель-Черкассах (Самарская область, Россия) (94 км)
Погода в Большая Глушица (Самарская область, Россия) (98 км)
Погода в Авангарде Зерносовхозе (Самарская область, Россия) (100 км)
Погода в Новодевичьем (Самарская область, Россия) (100 км)
Погода в Серноводске (Самарская область, Россия) (102 км)

Пояснения к столбцам:

Ветер - указаны скорость ветра в м/с - средняя за 10 мин, порывы в срок и между сроками (в фигурных скобках) и направление, откуда дует ветер: С - северный, СВ - северо-восточный, В - восточный, ЮВ - юго-восточный, Ю - южный, ЮЗ - юго-западный, З - западный, СЗ - северо-западный.
Видимость - горизонтальная дальность видимости в метрах или километрах. При видимости от 1 до 10 км при отсутствии осадков обычно наблюдается дымка, при ухудшении видимости до 1 км и менее - туман. В сухую погоду видимость может ухудшаться дымом, пылью или мглою.
Явления - указаны атмосферные явления, наблюдавшиеся в срок или в последний час перед сроком; фигурными скобками обозначены явления, наблюдавшиеся между сроками (за 1-3 часа до срока); квадратными скобками обозначены град или гололедные отложения с указанием их диаметра в мм.
Облачность - указаны через наклонную черту общая и нижняя облачность в баллах и высота нижней границы облаков в метрах; квадратными скобками обозначены формы облаков: Ci - перистые, Cs - перисто-слоистые, Cc - перисто-кучевые, Ac - высококучевые, As - высокослоистые, Sc - слоисто-кучевые, Ns - слоисто-дождевые, Cu - кучевые, Cb - кучево-дождевые. Подробнее классификацию облаков см. в Атласе облаков (PDF).
T - Температура воздуха - температура, измеренная на высоте 2 м над землей.
Td - Температура точки росы - температура, при понижении до которой содержащийся в воздухе водяной пар достигнет насыщения.
f - Относительная влажность воздуха - влажноcть воздуха, измеренная на высоте 2 м над землей.
Te - Эффективная температура - температура, которую ощущает одетый по сезону человек в тени. Характеристика душности погоды. При расчете учитывается влияние влажности воздуха и скорости ветра на теплоощущения человека.
Tes - Эффективная температура на солнце - температура, которую ощущает человек, с поправкой на солнечный нагрев. Характеристика знойности погоды. Зависит от высоты солнца над горизонтом, облачности и скорости ветра. Ночью, в пасмурную погоду, а также при ветре 12 м/с и более поправка равна нулю.
P - Атмосферное давление - приведенное к уровню моря атмосферное давление.
Po - Атмосферное давление - измеренное на уровне метеостанции атмосферное давление.
Tmin - Минимальная температура - минимум температуры воздуха на высоте 2 м над землей.
Tmax - Максимальная температура - максимум температуры воздуха на высоте 2 м над землей.
R - Количество осадков - Количество выпавших осадков за период времени, мм. При наведении курсора мыши на число - период времени, за который выпало указанное количество осадков.
R24 - Количество осадков - Количество выпавших осадков за 24 часа, мм.
S - Снежный покров - Высота снежного покрова, см. При наведении курсора мыши на число - состояние снежного покрова и степень покрытия местности в баллах.